FW8967 Weather Reports


time (UTC)temp
F
wind
direction
speed
knots
gust
knots
rain 1hr
in
rain 24hr
in
rain mn
in
humidity
%
barometer
mb
20260502163054 56 236 1.7 4.3 0.00 0.00 0.00 38 1013.2
20260502161601 56 210 2.6 7.0 0.00 0.00 0.00 36 1013.4
20260502151549 52 297 0.9 4.3 0.00 0.00 0.00 45 1013.9
20260502123048 48 113 0.0 1.7 0.00 0.00 0.00 53 1013.8
20260502121551 47 293 0.0 1.7 0.00 0.00 0.00 53 1013.8
20260502114554 47 0 0.0 0.9 0.00 0.00 0.00 58 1013.6
20260502113051 47 327 0.0 3.5 0.00 0.00 0.00 51 1013.4
20260502111551 47 274 0.9 2.6 0.00 0.00 0.00 52 1013.4
20260502110054 46 255 0.0 3.5 0.00 0.00 0.00 51 1013.4
20260502104549 46 0 0.0 0.0 0.00 0.00 0.00 54 1013.3
20260502103047 47 0 0.0 2.6 0.00 0.00 0.00 53 1013.4
20260502101552 47 0 0.0 0.9 0.00 0.00 0.00 56 1013.4
20260502064548 50 0 0.0 2.6 0.00 0.00 0.00 66 1012.8
20260502063048 50 290 0.0 3.5 0.00 0.00 0.00 65 1013.0
20260502061550 50 285 0.0 0.9 0.00 0.00 0.00 66 1013.1
20260502060051 50 0 0.0 0.9 0.00 0.00 0.00 66 1013.2
20260502054551 51 0 0.0 0.9 0.00 0.00 0.00 65 1013.0
20260502053059 51 0 0.0 0.0 0.00 0.00 0.00 65 1012.8
20260502051605 52 0 0.0 0.9 0.00 0.00 0.00 64 1012.9
20260502050056 53 0 0.0 1.7 0.00 0.00 0.00 62 1012.9
20260502044552 54 262 0.9 5.2 0.00 0.00 0.00 61 1012.9
20260502043055 54 0 0.0 2.6 0.00 0.00 0.00 62 1012.7
20260502041610 54 0 0.9 2.6 0.00 0.00 0.00 61 1012.6
20260502040054 55 0 0.0 0.9 0.00 0.00 0.00 61 1012.6
20260502034552 55 0 0.9 3.5 0.00 0.00 0.00 60 1012.5
20260502033105 56 124 1.7 6.1 0.00 0.00 0.00 59 1012.4
20260502031556 57 0 1.7 6.1 0.00 0.00 0.00 57 1012.3
20260502030056 58 280 0.9 4.3 0.00 0.00 0.00 54 1012.0
20260502024555 58 275 0.9 4.3 0.00 0.00 0.00 53 1012.2
20260502023057 59 244 1.7 5.2 0.00 0.00 0.00 52 1011.8
20260502021550 59 283 0.0 4.3 0.00 0.00 0.00 55 1011.5
20260502020054 59 0 0.0 1.7 0.00 0.00 0.00 60 1010.9
20260502014549 59 0 0.0 5.2 0.00 0.00 0.00 58 1010.9
20260502013048 60 0 0.9 5.2 0.00 0.00 0.00 54 1010.8
20260502011550 60 202 0.0 6.1 0.00 0.00 0.00 53 1010.5
20260502010048 60 231 1.7 6.1 0.00 0.00 0.00 53 1010.4
20260502004547 60 239 0.0 4.3 0.00 0.00 0.00 53 1010.1
20260502003045 59 240 0.0 3.5 0.00 0.00 0.00 54 1009.8
20260502001559 60 285 0.9 2.6 0.00 0.00 0.00 52 1009.5
20260502000050 61 250 0.0 3.5 0.00 0.00 0.00 51 1009.3
20260501234547 61 203 0.9 5.2 0.00 0.00 0.00 50 1008.8
20260501233103 62 263 0.0 3.5 0.00 0.00 0.00 49 1008.9
20260501231559 63 257 1.7 4.3 0.00 0.00 0.00 48 1009.0
20260501230049 65 179 0.9 7.0 0.00 0.00 0.00 46 1008.8
20260501224548 66 118 1.7 7.0 0.00 0.00 0.00 44 1008.8
20260501223110 68 96 1.7 5.2 0.00 0.00 0.00 43 1008.8
20260501221551 68 135 0.0 4.3 0.00 0.00 0.00 40 1008.9
20260501220052 68 0 0.9 3.5 0.00 0.00 0.00 42 1009.0
20260501214549 69 95 0.9 2.6 0.00 0.00 0.00 42 1009.1
20260501213050 68 118 0.9 4.3 0.00 0.00 0.00 42 1009.2
20260501211546 67 264 0.0 5.2 0.00 0.00 0.00 47 1009.4
20260501210051 65 113 1.7 4.3 0.00 0.00 0.00 43 1009.3
20260501204609 66 150 1.7 5.2 0.00 0.00 0.00 41 1009.6
20260501203053 67 0 0.9 3.5 0.00 0.00 0.00 41 1009.8
20260501201552 67 287 0.9 5.2 0.00 0.00 0.00 41 1010.0
20260501200050 66 224 1.7 5.2 0.00 0.00 0.00 45 1010.3
20260501194546 66 257 0.9 4.3 0.00 0.00 0.00 42 1010.6
20260501193051 66 115 2.6 7.8 0.00 0.00 0.00 41 1010.9
20260501191556 66 133 1.7 7.8 0.00 0.00 0.00 38 1011.2
20260501190049 67 268 0.9 6.1 0.00 0.00 0.00 40 1011.5
20260501184551 65 243 1.7 7.0 0.00 0.00 0.00 40 1011.5
20260501183055 65 130 0.9 8.7 0.00 0.00 0.00 42 1011.7
20260501181547 64 99 2.6 7.8 0.00 0.00 0.00 42 1012.0
20260501180058 64 124 1.7 8.7 0.00 0.00 0.00 45 1012.3
20260501174604 65 102 0.9 3.5 0.00 0.00 0.00 45 1012.7
20260501173051 63 0 0.9 7.0 0.00 0.00 0.00 43 1012.8